CAPE
2 6 2 2 1 2 2 3 4 3 3 0 4 14 7 6 2 110 84 5 0 13
2 3 2 2 4 1 2 3 3 3 3 3 15 12 6 18 4 75 31 0 0 6
2 3 4 3 3 1 2 2 3 3 2 2 3 2 3 2 47 174 152 23 0 1
0 1 2 1 1 1 1 2 1 2 2 2 3 5 3 2 5 50 65 11 19 5
2 0 1 1 2 2 0 2 2 2 2 2 2 2 7 7 6 1 1 2 0 2
2 1 0 0 1 0 1 1 1 1 1 1 1 2 2 3 5 5 7 7 5 5
0 0 1 1 1 0 0 0 0 1 0 0 1 1 2 2 2 2 2 2 5 9
0 0 0 0 1 1 1 1 0 0 0 0 0 1 1 2 1 1 1 1 1 2
0 0 0 0 0 0 0 0 1 0 1 1 0 3 2 2 1 1 1 0 1 1
0 0 0 0 0 0 0 1 0 0 1 0 2 1 2 1 1 1 0 0 0 2
0 0 0 0 0 0 0 0 0 0 0 1 1 0 0 0 0 0 1 1 2 1
0 0 0 0 0 0 0 0 0 1 0 0 0 0 0 0 0 0 0 1 0 0
0 0 0 0 0 0 0 0 0 0 0 0 0 0 0 0 0 0 0 0 0 0
1 0 2 2 0 0 0 0 0 0 0 0 0 0 0 0 0 0 0 0 0 0
CIN
0 0 0 0 0 0 0 0 0 0 0 0 0 0 0 0 0 -39 -64 -13 0 -50
0 0 0 0 0 0 0 0 0 0 0 -1 0 0 0 -44 -10 -72 -108 0 0 -63
0 0 0 0 0 0 0 0 0 0 0 0 0 0 0 0 -56 -15 -47 -104 0 -28
0 0 0 0 0 0 0 0 0 0 0 0 0 0 0 0 0 -72 -46 -8 -32 -22
0 0 0 0 0 0 0 0 0 0 0 0 0 0 0 0 0 0 0 0 0 0
0 0 0 0 0 0 0 0 0 0 0 0 0 0 0 0 0 0 0 0 0 0
0 0 0 0 0 0 0 0 0 0 0 0 0 0 0 0 0 0 0 0 0 0
0 0 0 0 0 0 0 0 0 0 0 0 0 0 0 0 0 0 0 0 0 0
0 0 0 0 0 0 0 0 0 0 0 0 0 0 0 0 0 0 0 0 0 0
0 0 0 0 0 0 0 0 0 0 0 0 0 0 0 0 0 0 0 0 0 0
0 0 0 0 0 0 0 0 0 0 -1 0 0 -1 -1 0 0 0 0 0 0 0
0 0 0 0 0 0 0 0 0 0 0 0 0 0 0 0 0 0 0 0 0 0
0 0 0 0 0 0 0 0 0 0 0 0 0 0 0 0 0 0 0 0 0 0
0 -1 0 0 -1 0 0 0 0 0 0 0 0 0 0 0 0 0 0 0 0 0
Wind_Speed
46 44 44 43 41 40 41 41 41 39 42 39 39 38 38 39 39 38 39 43 39 44
47 46 44 41 39 40 41 40 38 36 33 32 33 36 36 35 37 35 36 39 38 40
48 46 44 39 41 41 41 38 35 31 27 26 26 27 31 34 33 35 34 36 41 41
48 47 47 42 41 41 40 37 33 28 21 21 20 22 25 29 32 33 29 30 36 41
47 48 50 46 43 43 40 37 32 24 21 18 16 15 15 16 20 22 22 25 28 32
45 47 48 48 47 46 41 36 28 19 20 19 15 13 12 10 11 13 16 19 20 25
43 44 45 47 48 42 41 30 23 26 21 22 20 17 14 11 12 13 15 16 15 14
40 42 42 43 42 45 35 35 27 24 21 26 28 26 22 19 17 18 17 17 13 9
37 39 40 40 36 36 32 29 30 34 31 30 26 27 25 24 25 23 15 12 15 12
34 36 36 36 36 32 28 28 34 34 33 30 26 27 27 27 26 24 19 19 16 17
31 32 31 33 34 34 35 36 27 27 29 29 31 27 26 25 25 22 23 22 19 19
28 29 29 29 30 29 29 31 36 32 26 24 28 30 30 24 28 29 28 26 26 24
25 26 27 27 29 28 29 30 30 32 31 34 31 32 32 30 25 29 29 27 27 27
23 23 24 24 26 26 27 29 31 32 33 32 32 32 33 34 32 30 29 29 28 29
Wind_Direction
346 346 343 339 330 327 324 318 310 302 289 275 268 262 259 259 259 257 255 251 251 252
348 347 342 348 346 339 333 326 317 309 300 279 268 261 257 260 258 258 259 256 250 245
356 353 354 4 354 351 352 346 339 322 307 295 276 268 260 257 258 258 262 260 253 250
5 359 4 12 4 4 359 349 346 336 317 307 292 280 267 258 258 261 267 267 257 253
12 9 17 22 5 8 6 3 355 346 342 328 317 305 294 275 269 268 275 278 267 259
17 17 16 18 20 16 10 10 359 351 354 352 343 334 335 319 299 301 305 289 279 266
17 20 18 21 22 13 12 11 4 11 11 15 16 12 2 350 338 338 334 327 298 286
23 23 19 19 16 22 13 15 16 18 24 25 29 27 25 22 15 7 351 341 328 321
16 18 18 18 12 14 13 13 16 19 17 21 24 24 26 28 25 21 9 342 3 351
10 14 12 13 14 10 10 11 17 18 20 24 21 19 21 24 27 24 15 11 355 6
5 7 5 10 13 14 15 18 12 14 17 20 19 17 17 19 26 23 21 16 10 12
4 4 5 4 5 5 7 12 20 15 12 13 13 12 12 11 16 18 15 10 10 8
359 0 1 3 4 4 6 11 12 15 15 17 13 12 11 10 4 10 9 6 4 1
351 351 352 356 358 359 2 6 9 13 13 11 10 8 10 13 13 10 5 3 360 358